Powrót do katalogu

COSMOS 2251 DEB

AktywnyLEO
NORAD 33917·DEBRIS·🇷🇺 Russia

Wystrzelony Jun 16, 1993 z Plesetsk Cosmodrome

Loading…

Następne Przeloty (najbliższe 24 godziny)

TLE

ŚwieżeSource: Space-Track

Epoka: Sep 14, 2026, 15:25 UTC

1 33917U 93036DW  26257.64249383  .00001060  00000-0  83179-3 0  9993
2 33917  74.1069  29.6983 0332628  65.3712 298.1669 13.70026081875118

Śledź COSMOS 2251 DEB w czasie rzeczywistym z AllMySat

Download on the App Store